Year,Month,Day,Hour,Minute,Value (Times are PST for temperature in C)
2011,04,25,12,04,8.30
2011,04,25,12,05,8.30
2011,04,25,12,06,8.30
2011,04,25,12,07,8.30
2011,04,25,12,08,8.30
2011,04,25,12,09,8.30
2011,04,25,12,10,8.30
2011,04,25,12,11,8.30
2011,04,25,12,12,8.40
2011,04,25,12,13,8.40
2011,04,25,12,14,8.40
2011,04,25,12,15,8.40
2011,04,25,12,16,8.50
2011,04,25,12,17,8.50
2011,04,25,12,18,8.50
2011,04,25,12,19,8.50
2011,04,25,12,20,8.50
2011,04,25,12,21,8.60
2011,04,25,12,22,8.60
2011,04,25,12,23,8.60
2011,04,25,12,24,8.60
2011,04,25,12,25,8.60
2011,04,25,12,26,8.70
2011,04,25,12,27,8.70
2011,04,25,12,28,8.60
2011,04,25,12,29,8.60
2011,04,25,12,30,8.60
2011,04,25,12,31,8.70
2011,04,25,12,32,8.70
2011,04,25,12,33,8.80
2011,04,25,12,34,8.70
2011,04,25,12,35,8.70
2011,04,25,12,36,8.70
2011,04,25,12,37,8.70
2011,04,25,12,38,8.70
2011,04,25,12,39,8.70
2011,04,25,12,40,8.80
2011,04,25,12,41,8.80
2011,04,25,12,42,8.90
2011,04,25,12,43,9.00
2011,04,25,12,44,9.00
2011,04,25,12,45,9.10
2011,04,25,12,46,9.10
2011,04,25,12,47,9.10
2011,04,25,12,48,9.00
2011,04,25,12,49,9.00
2011,04,25,12,50,9.00
2011,04,25,12,51,9.00
2011,04,25,12,52,9.00
2011,04,25,12,53,8.90
2011,04,25,12,54,9.00
2011,04,25,12,55,9.00
2011,04,25,12,56,9.00
2011,04,25,12,57,9.00
2011,04,25,12,58,9.00
2011,04,25,12,59,8.90
2011,04,25,13,00,8.90
2011,04,25,13,01,8.90
2011,04,25,13,02,9.00
2011,04,25,13,03,9.00
2011,04,25,13,04,9.00
2011,04,25,13,05,8.90
2011,04,25,13,06,8.90
2011,04,25,13,07,8.90
2011,04,25,13,08,8.90
2011,04,25,13,09,8.90
2011,04,25,13,10,8.90
2011,04,25,13,11,8.90
2011,04,25,13,12,8.80
2011,04,25,13,13,8.80
2011,04,25,13,14,8.90
2011,04,25,13,15,9.00
2011,04,25,13,16,9.10
2011,04,25,13,17,9.10
2011,04,25,13,18,9.10
2011,04,25,13,19,9.20
2011,04,25,13,20,9.30
2011,04,25,13,21,9.40
2011,04,25,13,22,9.30
2011,04,25,13,23,9.30
2011,04,25,13,24,9.30
2011,04,25,13,25,9.30
2011,04,25,13,26,9.20
2011,04,25,13,27,9.20
2011,04,25,13,28,9.20
2011,04,25,13,29,9.20
2011,04,25,13,30,9.20
2011,04,25,13,31,9.20
2011,04,25,13,32,9.20
2011,04,25,13,33,9.20
2011,04,25,13,34,9.30
2011,04,25,13,35,9.30
2011,04,25,13,36,9.30
2011,04,25,13,37,9.30
2011,04,25,13,38,9.40
2011,04,25,13,39,9.40
2011,04,25,13,40,9.30
2011,04,25,13,41,9.30
2011,04,25,13,42,9.30
2011,04,25,13,43,9.30
2011,04,25,13,44,9.30
2011,04,25,13,45,9.30
2011,04,25,13,46,9.30
2011,04,25,13,47,9.30
2011,04,25,13,48,9.30
2011,04,25,13,49,9.20
2011,04,25,13,50,9.20
2011,04,25,13,51,9.20
2011,04,25,13,52,9.20
2011,04,25,13,53,9.20
2011,04,25,13,54,9.20
2011,04,25,13,55,9.10
2011,04,25,13,56,9.10
2011,04,25,13,57,9.10
2011,04,25,13,58,9.10
2011,04,25,13,59,9.10
2011,04,25,14,00,9.00
2011,04,25,14,01,8.90
2011,04,25,14,02,8.90
2011,04,25,14,03,8.80
2011,04,25,14,04,8.80
2011,04,25,14,05,8.80
2011,04,25,14,06,8.80
2011,04,25,14,07,8.80
2011,04,25,14,08,8.80
2011,04,25,14,09,8.80
2011,04,25,14,10,8.70
2011,04,25,14,11,8.50
2011,04,25,14,12,8.40
2011,04,25,14,13,8.20
2011,04,25,14,14,8.10
2011,04,25,14,15,8.10
2011,04,25,14,16,8.00
2011,04,25,14,17,7.90
2011,04,25,14,18,7.80
2011,04,25,14,19,7.80
2011,04,25,14,20,7.70
2011,04,25,14,21,7.60
2011,04,25,14,22,7.50
2011,04,25,14,23,7.50
2011,04,25,14,24,7.40
2011,04,25,14,25,7.40
2011,04,25,14,26,7.40
2011,04,25,14,27,7.30
2011,04,25,14,28,7.30
2011,04,25,14,29,7.30
2011,04,25,14,30,7.30
2011,04,25,14,31,7.30
2011,04,25,14,32,7.30
2011,04,25,14,33,7.30
2011,04,25,14,34,7.30
2011,04,25,14,35,7.30
2011,04,25,14,36,7.30
2011,04,25,14,37,7.30
2011,04,25,14,38,7.30
2011,04,25,14,39,7.30
2011,04,25,14,40,7.30
2011,04,25,14,41,7.30
2011,04,25,14,42,7.30
2011,04,25,14,43,7.30
2011,04,25,14,44,7.40
2011,04,25,14,45,7.40
2011,04,25,14,46,7.50
2011,04,25,14,47,7.60
2011,04,25,14,48,7.60
2011,04,25,14,49,7.70
2011,04,25,14,50,7.80
2011,04,25,14,51,7.80
2011,04,25,14,52,7.80
2011,04,25,14,53,7.80
2011,04,25,14,54,7.80
2011,04,25,14,55,7.80
2011,04,25,14,56,7.90
2011,04,25,14,57,7.90
2011,04,25,14,58,7.90
2011,04,25,14,59,8.00
2011,04,25,15,00,8.10
2011,04,25,15,01,8.10
2011,04,25,15,02,8.10
2011,04,25,15,03,8.10
2011,04,25,15,04,8.20
2011,04,25,15,05,8.20
2011,04,25,15,06,8.20
2011,04,25,15,07,8.20
2011,04,25,15,08,8.30
2011,04,25,15,09,8.30
2011,04,25,15,10,8.30
2011,04,25,15,11,8.30
2011,04,25,15,12,8.30
2011,04,25,15,13,8.30
2011,04,25,15,14,8.30
2011,04,25,15,15,8.30
2011,04,25,15,16,8.30
2011,04,25,15,17,8.30
2011,04,25,15,18,8.30
2011,04,25,15,19,8.30
2011,04,25,15,20,8.20
2011,04,25,15,21,8.20
2011,04,25,15,22,8.20
2011,04,25,15,23,8.20
2011,04,25,15,24,8.20
2011,04,25,15,25,8.20
2011,04,25,15,26,8.20
2011,04,25,15,27,8.20
2011,04,25,15,28,8.20
2011,04,25,15,29,8.20
2011,04,25,15,30,8.20
2011,04,25,15,31,8.20
2011,04,25,15,32,8.20
2011,04,25,15,33,8.20
2011,04,25,15,34,8.20
2011,04,25,15,35,8.20
2011,04,25,15,36,8.20
2011,04,25,15,37,8.20
2011,04,25,15,38,8.20
2011,04,25,15,39,8.20
2011,04,25,15,40,8.20
2011,04,25,15,41,8.20
2011,04,25,15,42,8.20
2011,04,25,15,43,8.20
2011,04,25,15,44,8.20
2011,04,25,15,45,8.20
2011,04,25,15,46,8.30
2011,04,25,15,47,8.30
2011,04,25,15,48,8.30
2011,04,25,15,49,8.30
2011,04,25,15,50,8.40
2011,04,25,15,51,8.40
2011,04,25,15,52,8.50
2011,04,25,15,53,8.50
2011,04,25,15,54,8.50
2011,04,25,15,55,8.50
2011,04,25,15,56,8.50
2011,04,25,15,57,8.60
2011,04,25,15,58,8.60
2011,04,25,15,59,8.60
2011,04,25,16,00,8.60
2011,04,25,16,01,8.60
2011,04,25,16,02,8.60
2011,04,25,16,03,8.60
2011,04,25,16,04,8.60
2011,04,25,16,05,8.60
2011,04,25,16,06,8.60
2011,04,25,16,07,8.60
2011,04,25,16,08,8.60
2011,04,25,16,09,8.60
2011,04,25,16,10,8.60
2011,04,25,16,11,8.70
2011,04,25,16,12,8.70
2011,04,25,16,13,8.80
2011,04,25,16,14,8.80
2011,04,25,16,15,8.80
2011,04,25,16,16,8.90
2011,04,25,16,17,8.90
2011,04,25,16,18,8.90
2011,04,25,16,19,8.90
2011,04,25,16,20,9.00
2011,04,25,16,21,9.10
2011,04,25,16,22,9.10
2011,04,25,16,23,9.10
2011,04,25,16,24,9.00
2011,04,25,16,25,9.00
2011,04,25,16,26,9.00
2011,04,25,16,27,9.00
2011,04,25,16,28,9.00
2011,04,25,16,29,8.90
2011,04,25,16,30,8.90
2011,04,25,16,31,8.90
2011,04,25,16,32,8.90
2011,04,25,16,33,8.90
2011,04,25,16,34,8.90
2011,04,25,16,35,8.90
2011,04,25,16,36,8.90
2011,04,25,16,37,8.90
2011,04,25,16,38,8.80
2011,04,25,16,39,8.90
2011,04,25,16,40,8.80
2011,04,25,16,41,8.80
2011,04,25,16,42,8.80
2011,04,25,16,43,8.80
2011,04,25,16,44,8.80
2011,04,25,16,45,8.80
2011,04,25,16,46,8.80
2011,04,25,16,47,8.80
2011,04,25,16,48,8.80
2011,04,25,16,49,8.80
2011,04,25,16,50,8.80
2011,04,25,16,51,8.80
2011,04,25,16,52,8.80
2011,04,25,16,53,8.70
2011,04,25,16,54,8.70
2011,04,25,16,55,8.70
2011,04,25,16,56,8.60
2011,04,25,16,57,8.60
2011,04,25,16,58,8.60
2011,04,25,16,59,8.60
2011,04,25,17,00,8.60
2011,04,25,17,01,8.60
2011,04,25,17,02,8.60
2011,04,25,17,03,8.50
2011,04,25,17,04,8.50
2011,04,25,17,05,8.50
2011,04,25,17,06,8.60
2011,04,25,17,07,8.50
2011,04,25,17,08,8.50
2011,04,25,17,09,8.50
2011,04,25,17,10,8.50
2011,04,25,17,11,8.50
2011,04,25,17,12,8.50
2011,04,25,17,13,8.50
2011,04,25,17,14,8.50
2011,04,25,17,15,8.50
2011,04,25,17,16,8.60
2011,04,25,17,17,8.60
2011,04,25,17,18,8.60
2011,04,25,17,19,8.50
2011,04,25,17,20,8.50
2011,04,25,17,21,8.50
2011,04,25,17,22,8.40
2011,04,25,17,23,8.40
2011,04,25,17,24,8.40
2011,04,25,17,25,8.40
2011,04,25,17,26,8.40
2011,04,25,17,27,8.40
2011,04,25,17,28,8.40
2011,04,25,17,29,8.40
2011,04,25,17,30,8.40
2011,04,25,17,31,8.30
2011,04,25,17,32,8.30
2011,04,25,17,33,8.40
2011,04,25,17,34,8.40
2011,04,25,17,35,8.40
2011,04,25,17,36,8.40
2011,04,25,17,37,8.40
2011,04,25,17,38,8.40
2011,04,25,17,39,8.50
2011,04,25,17,40,8.50
2011,04,25,17,41,8.60
2011,04,25,17,42,8.60
2011,04,25,17,43,8.60
2011,04,25,17,44,8.60
2011,04,25,17,45,8.60
2011,04,25,17,46,8.60
2011,04,25,17,47,8.60
2011,04,25,17,48,8.60
2011,04,25,17,49,8.60
2011,04,25,17,50,8.60
2011,04,25,17,51,8.60
2011,04,25,17,52,8.60
2011,04,25,17,53,8.60
2011,04,25,17,54,8.60
2011,04,25,17,55,8.60
2011,04,25,17,56,8.70
2011,04,25,17,57,8.60
2011,04,25,17,58,8.70
2011,04,25,17,59,8.60
2011,04,25,18,00,8.60
2011,04,25,18,01,8.60
2011,04,25,18,02,8.60
2011,04,25,18,03,8.60
2011,04,25,18,04,8.60
2011,04,25,18,05,8.60
2011,04,25,18,06,8.60
2011,04,25,18,07,8.60
2011,04,25,18,08,8.60
2011,04,25,18,09,8.70
2011,04,25,18,10,8.70
2011,04,25,18,11,8.70
2011,04,25,18,12,8.70
2011,04,25,18,13,8.70
2011,04,25,18,14,8.70
2011,04,25,18,15,8.70
2011,04,25,18,16,8.70
2011,04,25,18,17,8.70
2011,04,25,18,18,8.70
2011,04,25,18,19,8.60
2011,04,25,18,20,8.70
2011,04,25,18,21,8.70
2011,04,25,18,22,8.60
2011,04,25,18,23,8.60
2011,04,25,18,24,8.60
2011,04,25,18,25,8.60
2011,04,25,18,26,8.60
2011,04,25,18,27,8.60
2011,04,25,18,28,8.60
2011,04,25,18,29,8.60
2011,04,25,18,30,8.60
2011,04,25,18,31,8.60
2011,04,25,18,32,8.60
2011,04,25,18,33,8.50
2011,04,25,18,34,8.50
2011,04,25,18,35,8.50
2011,04,25,18,36,8.40
2011,04,25,18,37,8.40
2011,04,25,18,38,8.40
2011,04,25,18,39,8.40
2011,04,25,18,40,8.40
2011,04,25,18,41,8.40
2011,04,25,18,42,8.40
2011,04,25,18,43,8.40
2011,04,25,18,44,8.40
2011,04,25,18,45,8.40
2011,04,25,18,46,8.40
2011,04,25,18,47,8.40
2011,04,25,18,48,8.40
2011,04,25,18,49,8.40
2011,04,25,18,50,8.40
2011,04,25,18,51,8.40
2011,04,25,18,52,8.40
2011,04,25,18,53,8.40
2011,04,25,18,54,8.40
2011,04,25,18,55,8.40
2011,04,25,18,56,8.40
2011,04,25,18,57,8.40
2011,04,25,18,58,8.40
2011,04,25,18,59,8.40
2011,04,25,19,00,8.50
2011,04,25,19,01,8.50
2011,04,25,19,02,8.50
2011,04,25,19,03,8.60
2011,04,25,19,04,8.60
2011,04,25,19,05,8.60
2011,04,25,19,06,8.60
2011,04,25,19,07,8.60
2011,04,25,19,08,8.60
2011,04,25,19,09,8.60
2011,04,25,19,10,8.60
2011,04,25,19,11,8.50
2011,04,25,19,12,8.50
2011,04,25,19,13,8.50
2011,04,25,19,14,8.50
2011,04,25,19,15,8.40
2011,04,25,19,16,8.40
2011,04,25,19,17,8.40
2011,04,25,19,18,8.40
2011,04,25,19,19,8.40
2011,04,25,19,20,8.40
2011,04,25,19,21,8.40
2011,04,25,19,22,8.40
2011,04,25,19,23,8.40
2011,04,25,19,24,8.40
2011,04,25,19,25,8.40
2011,04,25,19,26,8.40
2011,04,25,19,27,8.40
2011,04,25,19,28,8.40
2011,04,25,19,29,8.40
2011,04,25,19,30,8.40
2011,04,25,19,31,8.40
2011,04,25,19,32,8.30
2011,04,25,19,33,8.30
2011,04,25,19,34,8.30
2011,04,25,19,35,8.30
2011,04,25,19,36,8.30
2011,04,25,19,37,8.30
2011,04,25,19,38,8.30
2011,04,25,19,39,8.30
2011,04,25,19,40,8.30
2011,04,25,19,41,8.20
2011,04,25,19,42,8.20
2011,04,25,19,43,8.20
2011,04,25,19,44,8.20
2011,04,25,19,45,8.20
2011,04,25,19,46,8.20
2011,04,25,19,47,8.20
2011,04,25,19,48,8.20
2011,04,25,19,49,8.20
2011,04,25,19,50,8.20
2011,04,25,19,51,8.20
2011,04,25,19,52,8.20
2011,04,25,19,53,8.20
2011,04,25,19,54,8.20
2011,04,25,19,55,8.20
2011,04,25,19,56,8.20
2011,04,25,19,57,8.20
2011,04,25,19,58,8.20
2011,04,25,19,59,8.20
2011,04,25,20,00,8.20
2011,04,25,20,01,8.20
2011,04,25,20,02,8.20
2011,04,25,20,03,8.20
2011,04,25,20,04,8.20
2011,04,25,20,05,8.20
2011,04,25,20,06,8.20
2011,04,25,20,07,8.20
2011,04,25,20,08,8.20
2011,04,25,20,09,8.10
2011,04,25,20,10,8.10
2011,04,25,20,11,8.10
2011,04,25,20,12,8.10
2011,04,25,20,13,8.10
2011,04,25,20,14,8.10
2011,04,25,20,15,8.00
2011,04,25,20,16,8.00
2011,04,25,20,17,8.00
2011,04,25,20,18,7.90
2011,04,25,20,19,7.90
2011,04,25,20,20,7.90
2011,04,25,20,21,7.90
2011,04,25,20,22,7.90
2011,04,25,20,23,7.90
2011,04,25,20,24,7.80
2011,04,25,20,25,7.80
2011,04,25,20,26,7.80
2011,04,25,20,27,7.80
2011,04,25,20,28,7.80
2011,04,25,20,29,7.80
2011,04,25,20,30,7.80
2011,04,25,20,31,7.80
2011,04,25,20,32,7.80
2011,04,25,20,33,7.80
2011,04,25,20,34,7.70
2011,04,25,20,35,7.70
2011,04,25,20,36,7.70
2011,04,25,20,37,7.70
2011,04,25,20,38,7.70
2011,04,25,20,39,7.60
2011,04,25,20,40,7.60
2011,04,25,20,41,7.60
2011,04,25,20,42,7.60
2011,04,25,20,43,7.50
2011,04,25,20,44,7.50
2011,04,25,20,45,7.50
2011,04,25,20,46,7.50
2011,04,25,20,47,7.50
2011,04,25,20,48,7.40
2011,04,25,20,49,7.40
2011,04,25,20,50,7.40
2011,04,25,20,51,7.40
2011,04,25,20,52,7.30
2011,04,25,20,53,7.30
2011,04,25,20,54,7.30
2011,04,25,20,55,7.30
2011,04,25,20,56,7.30
2011,04,25,20,57,7.30
2011,04,25,20,58,7.30
2011,04,25,20,59,7.30
2011,04,25,21,00,7.30
2011,04,25,21,01,7.30
2011,04,25,21,02,7.30
2011,04,25,21,03,7.30
2011,04,25,21,04,7.30
2011,04,25,21,05,7.30
2011,04,25,21,06,7.30
2011,04,25,21,07,7.30
2011,04,25,21,08,7.30
2011,04,25,21,09,7.30
2011,04,25,21,10,7.30
